Time,TemperatureF,DewpointF,PressureIn,WindDirection,WindDirectionDegrees,WindSpeedMPH,WindSpeedGustMPH,Humidity,HourlyPrecipIn,Conditions,Clouds,dailyrainin,SoftwareType,DateUTC
2013-02-11 00:05:00,23.8,22.3,29.36,NNE,15,6.0,11.0,94,0.00,,---,0.00,VWS V13.01,2013-02-11 06:05:00,
2013-02-11 00:10:00,23.8,22.3,29.36,ESE,111,5.0,11.0,94,0.00,,---,0.00,VWS V13.01,2013-02-11 06:10:00,
2013-02-11 00:15:00,23.8,22.6,29.36,NE,56,9.0,11.0,95,0.00,,---,0.00,VWS V13.01,2013-02-11 06:15:00,
2013-02-11 00:20:00,23.8,22.3,29.36,NNE,22,9.0,13.0,94,0.00,,---,0.00,VWS V13.01,2013-02-11 06:20:00,
2013-02-11 00:25:00,23.9,22.4,29.36,NE,49,5.0,13.0,94,0.00,,---,0.00,VWS V13.01,2013-02-11 06:25:00,
2013-02-11 00:31:00,23.9,22.4,29.36,NE,55,6.0,13.0,94,0.00,,---,0.00,VWS V13.01,2013-02-11 06:31:00,
2013-02-11 00:36:00,23.9,22.4,29.36,NE,43,5.0,13.0,94,0.00,,---,0.00,VWS V13.01,2013-02-11 06:36:00,
2013-02-11 00:41:00,23.9,22.4,29.36,NE,52,3.0,13.0,94,0.00,,---,0.00,VWS V13.01,2013-02-11 06:41:00,
2013-02-11 00:46:00,23.9,22.4,29.36,NNE,15,6.0,13.0,94,0.00,,---,0.00,VWS V13.01,2013-02-11 06:46:00,
2013-02-11 00:51:00,23.9,22.4,29.36,North,5,3.0,12.0,94,0.00,,---,0.00,VWS V13.01,2013-02-11 06:51:00,
2013-02-11 00:57:00,24.0,22.5,29.36,ENE,61,2.0,12.0,94,0.00,,---,0.00,VWS V13.01,2013-02-11 06:57:00,
2013-02-11 01:02:00,24.0,22.5,29.35,NE,53,2.0,12.0,94,0.00,,---,0.00,VWS V13.01,2013-02-11 07:02:00,
2013-02-11 01:07:00,24.0,22.5,29.35,NNE,14,3.0,11.0,94,0.00,,---,0.00,VWS V13.01,2013-02-11 07:07:00,
2013-02-11 01:12:00,24.0,22.5,29.35,North,360,7.0,11.0,94,0.00,,---,0.00,VWS V13.01,2013-02-11 07:12:00,
2013-02-11 01:17:00,24.0,22.8,29.34,North,11,3.0,3.0,95,0.00,,---,0.00,VWS V13.01,2013-02-11 07:17:00,
2013-02-11 01:23:00,24.0,22.8,29.34,NNE,19,3.0,9.0,95,0.00,,---,0.00,VWS V13.01,2013-02-11 07:23:00,
2013-02-11 01:28:00,24.0,22.8,29.34,NE,50,10.0,11.0,95,0.00,,---,0.00,VWS V13.01,2013-02-11 07:28:00,
2013-02-11 01:33:00,23.9,22.4,29.34,NNW,346,3.0,14.0,94,0.00,,---,0.00,VWS V13.01,2013-02-11 07:33:00,
2013-02-11 01:38:00,23.8,22.3,29.34,North,355,5.0,14.0,94,0.00,,---,0.00,VWS V13.01,2013-02-11 07:38:00,
2013-02-11 01:43:00,23.7,22.2,29.34,NNE,20,5.0,15.0,94,0.00,,---,0.00,VWS V13.01,2013-02-11 07:43:00,
2013-02-11 01:49:00,23.6,22.1,29.33,North,9,3.0,6.0,94,0.00,,---,0.00,VWS V13.01,2013-02-11 07:49:00,
2013-02-11 01:54:00,23.5,22.0,29.33,NNE,24,5.0,13.0,94,0.00,,---,0.00,VWS V13.01,2013-02-11 07:54:00,
2013-02-11 01:59:00,23.4,21.9,29.33,NNE,33,2.0,17.0,94,0.00,,---,0.00,VWS V13.01,2013-02-11 07:59:00,
2013-02-11 02:04:00,23.3,21.8,29.35,North,11,4.0,11.0,94,0.00,,---,0.00,VWS V13.01,2013-02-11 08:04:00,
2013-02-11 02:10:00,23.1,21.6,29.35,NNE,16,9.0,18.0,94,0.00,,---,0.00,VWS V13.01,2013-02-11 08:10:00,
2013-02-11 02:15:00,23.0,21.5,29.35,North,9,4.0,18.0,94,0.00,,---,0.00,VWS V13.01,2013-02-11 08:15:00,
2013-02-11 02:20:00,23.0,21.5,29.34,North,5,4.0,9.0,94,0.00,,---,0.00,VWS V13.01,2013-02-11 08:20:00,
2013-02-11 02:25:00,22.9,21.4,29.34,NNW,348,4.0,11.0,94,0.00,,---,0.00,VWS V13.01,2013-02-11 08:25:00,
2013-02-11 02:31:00,22.8,21.3,29.34,NW,325,4.0,11.0,94,0.00,,---,0.00,VWS V13.01,2013-02-11 08:31:00,
2013-02-11 02:36:00,22.7,21.2,29.34,NNE,30,8.0,17.0,94,0.00,,---,0.00,VWS V13.01,2013-02-11 08:36:00,
2013-02-11 02:41:00,22.5,21.0,29.34,NNE,25,4.0,17.0,94,0.00,,---,0.00,VWS V13.01,2013-02-11 08:41:00,
2013-02-11 02:46:00,22.5,21.0,29.34,North,9,5.0,17.0,94,0.00,,---,0.00,VWS V13.01,2013-02-11 08:46:00,
2013-02-11 02:52:00,22.4,20.9,29.34,North,5,4.0,13.0,94,0.00,,---,0.00,VWS V13.01,2013-02-11 08:52:00,
2013-02-11 02:57:00,22.3,20.8,29.34,NNE,25,3.0,13.0,94,0.00,,---,0.00,VWS V13.01,2013-02-11 08:57:00,
2013-02-11 03:02:00,22.2,20.7,29.36,NNW,348,14.0,15.0,94,0.00,,---,0.00,VWS V13.01,2013-02-11 09:02:00,
2013-02-11 03:07:00,22.1,20.6,29.36,NNE,26,1.0,18.0,94,0.00,,---,0.00,VWS V13.01,2013-02-11 09:07:00,
2013-02-11 03:13:00,22.1,20.6,29.36,NNE,12,1.0,18.0,94,0.00,,---,0.00,VWS V13.01,2013-02-11 09:13:00,
2013-02-11 03:18:00,22.0,20.5,29.35,NNW,343,4.0,13.0,94,0.00,,---,0.00,VWS V13.01,2013-02-11 09:18:00,
2013-02-11 03:23:00,21.9,20.4,29.35,NNE,24,5.0,13.0,94,0.00,,---,0.00,VWS V13.01,2013-02-11 09:23:00,
2013-02-11 03:28:00,21.8,20.3,29.35,NNE,12,9.0,19.0,94,0.00,,---,0.00,VWS V13.01,2013-02-11 09:28:00,
2013-02-11 03:34:00,21.7,20.2,29.35,North,350,6.0,16.0,94,0.00,,---,0.00,VWS V13.01,2013-02-11 09:34:00,
2013-02-11 03:39:00,21.6,20.1,29.35,NNE,22,11.0,16.0,94,0.00,,---,0.00,VWS V13.01,2013-02-11 09:39:00,
2013-02-11 03:44:00,21.5,20.0,29.35,NNE,17,5.0,16.0,94,0.00,,---,0.00,VWS V13.01,2013-02-11 09:44:00,
2013-02-11 03:49:00,21.4,19.7,29.35,NNW,348,4.0,12.0,93,0.00,,---,0.00,VWS V13.01,2013-02-11 09:49:00,
2013-02-11 03:54:00,21.3,19.6,29.35,North,5,5.0,15.0,93,0.00,,---,0.00,VWS V13.01,2013-02-11 09:54:00,
2013-02-11 03:59:00,21.2,19.5,29.35,North,360,11.0,15.0,93,0.00,,---,0.00,VWS V13.01,2013-02-11 09:59:00,
2013-02-11 04:05:00,21.0,19.3,29.37,North,360,5.0,12.0,93,0.00,,---,0.00,VWS V13.01,2013-02-11 10:05:00,
2013-02-11 04:10:00,20.9,19.2,29.37,NNW,348,4.0,15.0,93,0.00,,---,0.00,VWS V13.01,2013-02-11 10:10:00,
2013-02-11 04:15:00,20.7,19.0,29.37,NNE,22,5.0,15.0,93,0.00,,---,0.00,VWS V13.01,2013-02-11 10:15:00,
2013-02-11 04:20:00,20.6,18.9,29.37,NE,44,5.0,15.0,93,0.00,,---,0.00,VWS V13.01,2013-02-11 10:20:00,
2013-02-11 04:26:00,20.5,18.8,29.37,NNE,12,5.0,16.0,93,0.00,,---,0.00,VWS V13.01,2013-02-11 10:26:00,
2013-02-11 04:31:00,20.4,18.7,29.37,NNE,20,4.0,16.0,93,0.00,,---,0.00,VWS V13.01,2013-02-11 10:31:00,
2013-02-11 04:36:00,20.4,18.7,29.38,NNE,17,13.0,13.0,93,0.00,,---,0.00,VWS V13.01,2013-02-11 10:36:00,
2013-02-11 04:41:00,20.3,18.6,29.38,NE,53,6.0,14.0,93,0.00,,---,0.00,VWS V13.01,2013-02-11 10:41:00,
2013-02-11 04:46:00,20.2,18.5,29.38,NNW,342,1.0,14.0,93,0.00,,---,0.00,VWS V13.01,2013-02-11 10:46:00,
2013-02-11 04:52:00,20.0,18.3,29.38,North,355,10.0,15.0,93,0.00,,---,0.00,VWS V13.01,2013-02-11 10:52:00,
2013-02-11 04:57:00,20.0,18.3,29.38,NNW,342,3.0,15.0,93,0.00,,---,0.00,VWS V13.01,2013-02-11 10:57:00,
2013-02-11 05:02:00,19.8,18.1,29.38,North,5,3.0,3.0,93,0.00,,---,0.00,VWS V13.01,2013-02-11 11:02:00,
2013-02-11 05:08:00,19.7,18.0,29.38,North,355,6.0,11.0,93,0.00,,---,0.00,VWS V13.01,2013-02-11 11:08:00,
2013-02-11 05:13:00,19.7,18.0,29.38,NNW,336,5.0,16.0,93,0.00,,---,0.00,VWS V13.01,2013-02-11 11:13:00,
2013-02-11 05:18:00,19.7,18.0,29.39,North,5,8.0,14.0,93,0.00,,---,0.00,VWS V13.01,2013-02-11 11:18:00,
2013-02-11 05:23:00,19.7,18.0,29.39,NNE,13,5.0,14.0,93,0.00,,---,0.00,VWS V13.01,2013-02-11 11:23:00,
2013-02-11 05:28:00,19.5,17.8,29.39,North,360,5.0,14.0,93,0.00,,---,0.00,VWS V13.01,2013-02-11 11:28:00,
2013-02-11 05:34:00,19.4,17.7,29.39,NNE,19,5.0,11.0,93,0.00,,---,0.00,VWS V13.01,2013-02-11 11:34:00,
2013-02-11 05:39:00,19.3,17.6,29.39,NNE,15,6.0,15.0,93,0.00,,---,0.00,VWS V13.01,2013-02-11 11:39:00,
2013-02-11 05:44:00,19.3,17.4,29.39,NNW,342,8.0,15.0,92,0.00,,---,0.00,VWS V13.01,2013-02-11 11:44:00,
2013-02-11 05:49:00,19.2,17.5,29.41,NNE,12,8.0,11.0,93,0.00,,---,0.00,VWS V13.01,2013-02-11 11:49:00,
2013-02-11 05:55:00,19.1,17.4,29.41,NNW,337,4.0,18.0,93,0.00,,---,0.00,VWS V13.01,2013-02-11 11:55:00,
2013-02-11 06:00:00,19.1,17.4,29.41,North,11,3.0,18.0,93,0.00,,---,0.00,VWS V13.01,2013-02-11 12:00:00,
2013-02-11 06:05:00,19.0,17.3,29.42,North,5,12.0,13.0,93,0.00,,---,0.00,VWS V13.01,2013-02-11 12:05:00,
2013-02-11 06:11:00,19.0,17.1,29.42,North,9,12.0,14.0,92,0.00,,---,0.00,VWS V13.01,2013-02-11 12:11:00,
2013-02-11 06:16:00,18.9,17.0,29.42,North,360,12.0,14.0,92,0.00,,---,0.00,VWS V13.01,2013-02-11 12:16:00,
2013-02-11 06:21:00,18.9,17.0,29.41,North,355,4.0,12.0,92,0.00,,---,0.00,VWS V13.01,2013-02-11 12:21:00,
2013-02-11 06:26:00,18.8,16.9,29.41,NNW,336,6.0,13.0,92,0.00,,---,0.00,VWS V13.01,2013-02-11 12:26:00,
2013-02-11 06:31:00,18.7,16.8,29.43,North,360,11.0,15.0,92,0.00,,---,0.00,VWS V13.01,2013-02-11 12:31:00,
2013-02-11 06:36:00,18.6,16.7,29.43,North,5,12.0,14.0,92,0.00,,---,0.00,VWS V13.01,2013-02-11 12:36:00,
2013-02-11 06:42:00,18.5,16.6,29.43,NNE,22,12.0,14.0,92,0.00,,---,0.00,VWS V13.01,2013-02-11 12:42:00,
2013-02-11 06:47:00,18.4,16.5,29.45,NNE,21,7.0,17.0,92,0.00,,---,0.00,VWS V13.01,2013-02-11 12:47:00,
2013-02-11 06:52:00,18.3,16.4,29.45,North,355,4.0,15.0,92,0.00,,---,0.00,VWS V13.01,2013-02-11 12:52:00,
2013-02-11 06:57:00,18.2,16.3,29.45,North,351,13.0,16.0,92,0.00,,---,0.00,VWS V13.01,2013-02-11 12:57:00,
2013-02-11 07:03:00,18.1,16.2,29.46,NW,311,7.0,7.0,92,0.00,,---,0.00,VWS V13.01,2013-02-11 13:03:00,
2013-02-11 07:08:00,18.0,16.1,29.46,North,360,5.0,14.0,92,0.00,,---,0.00,VWS V13.01,2013-02-11 13:08:00,
2013-02-11 07:13:00,17.9,16.0,29.46,NW,325,1.0,14.0,92,0.00,,---,0.00,VWS V13.01,2013-02-11 13:13:00,
2013-02-11 07:18:00,17.8,15.9,29.47,NW,316,5.0,12.0,92,0.00,,---,0.00,VWS V13.01,2013-02-11 13:18:00,
2013-02-11 07:23:00,17.6,15.7,29.47,NNW,342,6.0,14.0,92,0.00,,---,0.00,VWS V13.01,2013-02-11 13:23:00,
2013-02-11 07:29:00,17.5,15.6,29.47,NW,325,8.0,14.0,92,0.00,,---,0.00,VWS V13.01,2013-02-11 13:29:00,
2013-02-11 07:34:00,17.4,15.5,29.48,North,5,10.0,14.0,92,0.00,,---,0.00,VWS V13.01,2013-02-11 13:34:00,
2013-02-11 07:39:00,17.3,15.4,29.48,NNW,342,4.0,18.0,92,0.00,,---,0.00,VWS V13.01,2013-02-11 13:39:00,
2013-02-11 07:44:00,17.2,15.3,29.48,NNW,348,5.0,18.0,92,0.00,,---,0.00,VWS V13.01,2013-02-11 13:44:00,
2013-02-11 07:50:00,17.1,14.9,29.49,NNW,329,4.0,11.0,91,0.00,,---,0.00,VWS V13.01,2013-02-11 13:50:00,
2013-02-11 07:55:00,17.0,14.8,29.49,North,11,5.0,16.0,91,0.00,,---,0.00,VWS V13.01,2013-02-11 13:55:00,
2013-02-11 08:00:00,16.9,14.7,29.49,NNE,15,5.0,16.0,91,0.00,,---,0.00,VWS V13.01,2013-02-11 14:00:00,
2013-02-11 08:06:00,16.9,15.0,29.50,NNW,334,9.0,10.0,92,0.00,,---,0.00,VWS V13.01,2013-02-11 14:06:00,
2013-02-11 08:11:00,17.0,15.1,29.50,NW,317,1.0,10.0,92,0.00,,---,0.00,VWS V13.01,2013-02-11 14:11:00,
2013-02-11 08:16:00,17.0,15.1,29.50,North,355,5.0,11.0,92,0.00,,---,0.00,VWS V13.01,2013-02-11 14:16:00,
2013-02-11 08:21:00,17.1,15.2,29.51,NNW,331,5.0,10.0,92,0.00,,---,0.00,VWS V13.01,2013-02-11 14:21:00,
2013-02-11 08:26:00,17.1,15.2,29.51,NNE,17,10.0,22.0,92,0.00,,---,0.00,VWS V13.01,2013-02-11 14:26:00,
2013-02-11 08:31:00,16.7,14.5,29.52,North,5,9.0,22.0,91,0.00,,---,0.00,VWS V13.01,2013-02-11 14:31:00,
2013-02-11 08:37:00,16.4,14.2,29.52,NNE,13,2.0,20.0,91,0.00,,---,0.00,VWS V13.01,2013-02-11 14:37:00,
2013-02-11 08:42:00,16.2,14.0,29.52,North,351,12.0,20.0,91,0.00,,---,0.00,VWS V13.01,2013-02-11 14:42:00,
2013-02-11 08:47:00,16.2,14.0,29.54,North,351,6.0,20.0,91,0.00,,---,0.00,VWS V13.01,2013-02-11 14:47:00,
2013-02-11 08:52:00,16.0,13.8,29.54,North,355,3.0,18.0,91,0.00,,---,0.00,VWS V13.01,2013-02-11 14:52:00,
2013-02-11 08:58:00,16.0,13.8,29.54,North,355,4.0,18.0,91,0.00,,---,0.00,VWS V13.01,2013-02-11 14:58:00,
2013-02-11 09:03:00,16.0,13.8,29.54,North,5,5.0,7.0,91,0.00,,---,0.00,VWS V13.01,2013-02-11 15:03:00,
2013-02-11 09:08:00,16.0,13.8,29.54,North,355,3.0,15.0,91,0.00,,---,0.00,VWS V13.01,2013-02-11 15:08:00,
2013-02-11 09:13:00,15.8,13.6,29.54,NW,304,8.0,15.0,91,0.00,,---,0.00,VWS V13.01,2013-02-11 15:13:00,
2013-02-11 09:18:00,15.6,13.2,29.56,North,9,7.0,12.0,90,0.00,,---,0.00,VWS V13.01,2013-02-11 15:18:00,
2013-02-11 09:23:00,15.6,13.4,29.56,NNE,12,11.0,17.0,91,0.00,,---,0.00,VWS V13.01,2013-02-11 15:23:00,
2013-02-11 09:28:00,15.4,13.0,29.56,NW,320,10.0,17.0,90,0.00,,---,0.00,VWS V13.01,2013-02-11 15:28:00,
2013-02-11 09:34:00,15.2,12.8,29.56,NNW,344,6.0,10.0,90,0.00,,---,0.00,VWS V13.01,2013-02-11 15:34:00,
2013-02-11 09:39:00,15.2,12.8,29.56,NNE,13,4.0,16.0,90,0.00,,---,0.00,VWS V13.01,2013-02-11 15:39:00,
2013-02-11 09:44:00,15.2,12.8,29.56,North,355,6.0,16.0,90,0.00,,---,0.00,VWS V13.01,2013-02-11 15:44:00,
2013-02-11 09:49:00,15.3,12.9,29.56,North,355,11.0,15.0,90,0.00,,---,0.00,VWS V13.01,2013-02-11 15:49:00,
2013-02-11 09:54:00,15.4,13.2,29.56,North,355,13.0,15.0,91,0.00,,---,0.00,VWS V13.01,2013-02-11 15:54:00,
2013-02-11 10:00:00,15.2,12.8,29.56,NW,318,8.0,20.0,90,0.00,,---,0.00,VWS V13.01,2013-02-11 16:00:00,
2013-02-11 10:05:00,14.9,12.5,29.58,WNW,303,11.0,17.0,90,0.00,,---,0.00,VWS V13.01,2013-02-11 16:05:00,
2013-02-11 10:10:00,14.7,12.3,29.58,North,351,6.0,19.0,90,0.00,,---,0.00,VWS V13.01,2013-02-11 16:10:00,
2013-02-11 10:15:00,14.8,12.4,29.58,NW,325,10.0,19.0,90,0.00,,---,0.00,VWS V13.01,2013-02-11 16:15:00,
2013-02-11 10:20:00,14.7,12.3,29.61,North,355,11.0,12.0,90,0.00,,---,0.00,VWS V13.01,2013-02-11 16:20:00,
2013-02-11 10:25:00,14.6,12.2,29.61,North,355,10.0,12.0,90,0.00,,---,0.00,VWS V13.01,2013-02-11 16:25:00,
2013-02-11 10:31:00,14.2,11.6,29.61,NW,322,5.0,18.0,89,0.00,,---,0.00,VWS V13.01,2013-02-11 16:31:00,
2013-02-11 10:36:00,13.8,11.2,29.61,NNE,27,5.0,15.0,89,0.00,,---,0.00,VWS V13.01,2013-02-11 16:36:00,
2013-02-11 10:41:00,13.8,11.2,29.61,North,355,13.0,17.0,89,0.00,,---,0.00,VWS V13.01,2013-02-11 16:41:00,
2013-02-11 10:46:00,14.0,11.6,29.62,NNW,346,3.0,17.0,90,0.00,,---,0.00,VWS V13.01,2013-02-11 16:46:00,
2013-02-11 10:52:00,14.3,11.9,29.62,NNW,334,11.0,15.0,90,0.00,,---,0.00,VWS V13.01,2013-02-11 16:52:00,
2013-02-11 10:57:00,14.5,12.1,29.62,North,360,7.0,15.0,90,0.00,,---,0.00,VWS V13.01,2013-02-11 16:57:00,
2013-02-11 11:02:00,14.8,12.4,29.63,NNW,348,3.0,15.0,90,0.00,,---,0.00,VWS V13.01,2013-02-11 17:02:00,
2013-02-11 11:07:00,14.8,12.4,29.63,NW,325,3.0,14.0,90,0.00,,---,0.00,VWS V13.01,2013-02-11 17:07:00,
2013-02-11 11:12:00,14.6,11.9,29.63,NNW,329,11.0,15.0,89,0.00,,---,0.00,VWS V13.01,2013-02-11 17:12:00,
2013-02-11 11:17:00,14.5,12.1,29.64,NNW,332,4.0,5.0,90,0.00,,---,0.00,VWS V13.01,2013-02-11 17:17:00,
2013-02-11 11:22:00,14.6,12.2,29.64,NNW,334,5.0,13.0,90,0.00,,---,0.00,VWS V13.01,2013-02-11 17:22:00,
2013-02-11 11:27:00,14.6,12.2,29.64,NNW,344,7.0,17.0,90,0.00,,---,0.00,VWS V13.01,2013-02-11 17:27:00,
2013-02-11 11:32:00,14.7,12.3,29.64,North,5,10.0,19.0,90,0.00,,---,0.00,VWS V13.01,2013-02-11 17:32:00,
2013-02-11 11:38:00,14.6,11.9,29.64,North,355,12.0,19.0,89,0.00,,---,0.00,VWS V13.01,2013-02-11 17:38:00,
2013-02-11 11:43:00,14.7,12.3,29.64,NNW,342,12.0,19.0,90,0.00,,---,0.00,VWS V13.01,2013-02-11 17:43:00,
2013-02-11 11:48:00,14.7,12.1,29.64,North,355,3.0,8.0,89,0.00,,---,0.00,VWS V13.01,2013-02-11 17:48:00,
2013-02-11 11:53:00,14.8,12.4,29.64,WNW,300,4.0,13.0,90,0.00,,---,0.00,VWS V13.01,2013-02-11 17:53:00,
2013-02-11 11:59:00,14.9,12.5,29.64,North,350,7.0,16.0,90,0.00,,---,0.00,VWS V13.01,2013-02-11 17:59:00,
2013-02-11 12:04:00,15.1,12.7,29.64,NW,304,0.0,9.0,90,0.00,,---,0.00,VWS V13.01,2013-02-11 18:04:00,
2013-02-11 12:09:00,15.0,12.6,29.64,North,355,14.0,16.0,90,0.00,,---,0.00,VWS V13.01,2013-02-11 18:09:00,
2013-02-11 12:14:00,14.9,12.5,29.64,North,9,10.0,19.0,90,0.00,,---,0.00,VWS V13.01,2013-02-11 18:14:00,
2013-02-11 12:19:00,14.8,12.4,29.64,North,350,4.0,13.0,90,0.00,,---,0.00,VWS V13.01,2013-02-11 18:19:00,
2013-02-11 12:25:00,15.0,12.6,29.64,NW,324,6.0,19.0,90,0.00,,---,0.00,VWS V13.01,2013-02-11 18:25:00,
2013-02-11 12:30:00,14.9,12.5,29.64,WNW,302,7.0,19.0,90,0.00,,---,0.00,VWS V13.01,2013-02-11 18:30:00,
2013-02-11 12:35:00,14.6,11.9,29.65,NNW,348,10.0,16.0,89,0.00,,---,0.00,VWS V13.01,2013-02-11 18:35:00,
2013-02-11 12:40:00,14.4,11.8,29.65,North,355,8.0,18.0,89,0.00,,---,0.00,VWS V13.01,2013-02-11 18:40:00,
2013-02-11 12:45:00,14.5,11.9,29.65,NW,318,9.0,18.0,89,0.00,,---,0.00,VWS V13.01,2013-02-11 18:45:00,
2013-02-11 12:51:00,14.7,12.3,29.66,NNW,347,18.0,18.0,90,0.00,,---,0.00,VWS V13.01,2013-02-11 18:51:00,
2013-02-11 12:56:00,14.6,11.9,29.66,WNW,288,7.0,19.0,89,0.00,,---,0.00,VWS V13.01,2013-02-11 18:56:00,
2013-02-11 13:01:00,14.7,12.1,29.66,North,5,3.0,19.0,89,0.00,,---,0.00,VWS V13.01,2013-02-11 19:01:00,
2013-02-11 13:06:00,14.8,12.4,29.67,NW,321,5.0,14.0,90,0.00,,---,0.00,VWS V13.01,2013-02-11 19:06:00,
2013-02-11 13:12:00,14.8,12.4,29.67,NNW,342,3.0,16.0,90,0.00,,---,0.00,VWS V13.01,2013-02-11 19:12:00,
2013-02-11 13:17:00,15.3,12.9,29.67,NNW,342,3.0,16.0,90,0.00,,---,0.00,VWS V13.01,2013-02-11 19:17:00,
2013-02-11 13:22:00,15.4,12.7,29.67,North,5,6.0,16.0,89,0.00,,---,0.00,VWS V13.01,2013-02-11 19:22:00,
2013-02-11 13:27:00,15.5,13.1,29.67,WNW,292,9.0,16.0,90,0.00,,---,0.00,VWS V13.01,2013-02-11 19:27:00,
2013-02-11 13:32:00,15.4,13.0,29.68,NNW,333,9.0,16.0,90,0.00,,---,0.00,VWS V13.01,2013-02-11 19:32:00,
2013-02-11 13:37:00,15.1,12.4,29.68,NW,315,12.0,22.0,89,0.00,,---,0.00,VWS V13.01,2013-02-11 19:37:00,
2013-02-11 13:42:00,15.2,12.8,29.68,NNW,327,9.0,22.0,90,0.00,,---,0.00,VWS V13.01,2013-02-11 19:42:00,
2013-02-11 13:48:00,15.0,12.4,29.69,North,11,7.0,12.0,89,0.00,,---,0.00,VWS V13.01,2013-02-11 19:48:00,
2013-02-11 13:53:00,15.0,12.6,29.69,NNW,345,10.0,14.0,90,0.00,,---,0.00,VWS V13.01,2013-02-11 19:53:00,
2013-02-11 13:58:00,14.9,12.5,29.69,NNW,345,8.0,16.0,90,0.00,,---,0.00,VWS V13.01,2013-02-11 19:58:00,
2013-02-11 14:03:00,14.8,12.4,29.69,NNW,330,10.0,14.0,90,0.00,,---,0.00,VWS V13.01,2013-02-11 20:03:00,
2013-02-11 14:09:00,14.8,12.4,29.69,NW,321,9.0,18.0,90,0.00,,---,0.00,VWS V13.01,2013-02-11 20:09:00,
2013-02-11 14:14:00,14.8,12.4,29.69,NNW,340,1.0,18.0,90,0.00,,---,0.00,VWS V13.01,2013-02-11 20:14:00,
2013-02-11 14:19:00,15.0,12.6,29.71,WNW,296,5.0,13.0,90,0.00,,---,0.00,VWS V13.01,2013-02-11 20:19:00,
2013-02-11 14:24:00,15.1,12.7,29.71,NNE,28,14.0,14.0,90,0.00,,---,0.00,VWS V13.01,2013-02-11 20:24:00,
2013-02-11 14:30:00,15.1,12.7,29.71,NNW,331,10.0,15.0,90,0.00,,---,0.00,VWS V13.01,2013-02-11 20:30:00,
2013-02-11 14:35:00,15.3,12.9,29.72,WNW,296,7.0,15.0,90,0.00,,---,0.00,VWS V13.01,2013-02-11 20:35:00,
2013-02-11 14:40:00,15.5,13.1,29.72,NNW,341,16.0,16.0,90,0.00,,---,0.00,VWS V13.01,2013-02-11 20:40:00,
2013-02-11 14:45:00,15.5,13.1,29.72,North,5,13.0,18.0,90,0.00,,---,0.00,VWS V13.01,2013-02-11 20:45:00,
2013-02-11 14:50:00,15.6,13.2,29.71,WNW,303,13.0,14.0,90,0.00,,---,0.00,VWS V13.01,2013-02-11 20:50:00,
2013-02-11 14:56:00,15.7,13.3,29.71,North,355,4.0,14.0,90,0.00,,---,0.00,VWS V13.01,2013-02-11 20:56:00,
2013-02-11 15:01:00,15.8,13.4,29.71,NW,323,11.0,15.0,90,0.00,,---,0.00,VWS V13.01,2013-02-11 21:01:00,
2013-02-11 15:06:00,15.8,13.4,29.73,NW,312,7.0,18.0,90,0.00,,---,0.00,VWS V13.01,2013-02-11 21:06:00,
2013-02-11 15:11:00,15.7,13.3,29.73,NNW,330,5.0,18.0,90,0.00,,---,0.00,VWS V13.01,2013-02-11 21:11:00,
2013-02-11 15:16:00,15.7,13.3,29.73,NNW,337,10.0,18.0,90,0.00,,---,0.00,VWS V13.01,2013-02-11 21:16:00,
2013-02-11 15:21:00,15.7,13.3,29.75,NW,316,9.0,18.0,90,0.00,,---,0.00,VWS V13.01,2013-02-11 21:21:00,
2013-02-11 15:26:00,15.7,13.3,29.75,NNW,344,10.0,18.0,90,0.00,,---,0.00,VWS V13.01,2013-02-11 21:26:00,
2013-02-11 15:31:00,15.5,13.1,29.77,NW,317,10.0,18.0,90,0.00,,---,0.00,VWS V13.01,2013-02-11 21:31:00,
2013-02-11 15:37:00,15.5,13.1,29.77,NW,317,12.0,15.0,90,0.00,,---,0.00,VWS V13.01,2013-02-11 21:37:00,
2013-02-11 15:42:00,15.5,13.1,29.77,NNW,342,4.0,18.0,90,0.00,,---,0.00,VWS V13.01,2013-02-11 21:42:00,
2013-02-11 15:47:00,15.5,13.1,29.78,NW,323,3.0,18.0,90,0.00,,---,0.00,VWS V13.01,2013-02-11 21:47:00,
2013-02-11 15:52:00,15.7,13.5,29.78,NNW,348,9.0,15.0,91,0.00,,---,0.00,VWS V13.01,2013-02-11 21:52:00,
2013-02-11 15:58:00,15.7,13.3,29.78,NW,304,10.0,18.0,90,0.00,,---,0.00,VWS V13.01,2013-02-11 21:58:00,
2013-02-11 16:03:00,15.7,13.3,29.79,NW,310,9.0,11.0,90,0.00,,---,0.00,VWS V13.01,2013-02-11 22:03:00,
2013-02-11 16:08:00,15.6,13.2,29.79,NW,309,12.0,15.0,90,0.00,,---,0.00,VWS V13.01,2013-02-11 22:08:00,
2013-02-11 16:13:00,15.6,13.2,29.79,NW,319,12.0,15.0,90,0.00,,---,0.00,VWS V13.01,2013-02-11 22:13:00,
2013-02-11 16:18:00,15.7,13.5,29.81,NNW,327,2.0,9.0,91,0.00,,---,0.00,VWS V13.01,2013-02-11 22:18:00,
2013-02-11 16:23:00,15.6,13.4,29.81,WNW,295,8.0,14.0,91,0.00,,---,0.00,VWS V13.01,2013-02-11 22:23:00,
2013-02-11 16:29:00,15.7,13.5,29.81,NNW,336,2.0,14.0,91,0.00,,---,0.00,VWS V13.01,2013-02-11 22:29:00,
2013-02-11 16:34:00,15.7,13.5,29.82,WNW,294,7.0,7.0,91,0.00,,---,0.00,VWS V13.01,2013-02-11 22:34:00,
2013-02-11 16:39:00,15.7,13.5,29.82,NNW,327,3.0,15.0,91,0.00,,---,0.00,VWS V13.01,2013-02-11 22:39:00,
2013-02-11 16:44:00,15.7,13.5,29.82,NW,315,3.0,15.0,91,0.00,,---,0.00,VWS V13.01,2013-02-11 22:44:00,
2013-02-11 16:49:00,15.6,13.4,29.82,NNW,333,5.0,16.0,91,0.00,,---,0.00,VWS V13.01,2013-02-11 22:49:00,
2013-02-11 16:54:00,15.5,13.4,29.82,NNW,338,7.0,16.0,91,0.00,,---,0.00,VWS V13.01,2013-02-11 22:54:00,
2013-02-11 16:59:00,15.5,13.4,29.82,NNW,331,4.0,16.0,91,0.00,,---,0.00,VWS V13.01,2013-02-11 22:59:00,
2013-02-11 17:04:00,15.5,13.4,29.83,NW,307,4.0,10.0,91,0.00,,---,0.00,VWS V13.01,2013-02-11 23:04:00,
2013-02-11 17:10:00,15.5,13.4,29.83,WNW,300,6.0,10.0,91,0.00,,---,0.00,VWS V13.01,2013-02-11 23:10:00,
2013-02-11 17:15:00,15.4,13.2,29.83,NNW,343,4.0,11.0,91,0.00,,---,0.00,VWS V13.01,2013-02-11 23:15:00,
2013-02-11 17:20:00,15.4,13.2,29.86,NW,306,4.0,10.0,91,0.00,,---,0.00,VWS V13.01,2013-02-11 23:20:00,
2013-02-11 17:25:00,15.3,13.1,29.86,NNW,327,4.0,13.0,91,0.00,,---,0.00,VWS V13.01,2013-02-11 23:25:00,
2013-02-11 17:31:00,15.3,13.1,29.86,NW,311,7.0,13.0,91,0.00,,---,0.00,VWS V13.01,2013-02-11 23:31:00,
2013-02-11 17:36:00,15.3,13.1,29.86,NW,313,8.0,11.0,91,0.00,,---,0.00,VWS V13.01,2013-02-11 23:36:00,
2013-02-11 17:41:00,15.2,13.1,29.86,North,349,3.0,11.0,91,0.00,,---,0.00,VWS V13.01,2013-02-11 23:41:00,
2013-02-11 17:46:00,15.2,13.1,29.87,North,351,16.0,16.0,91,0.00,,---,0.00,VWS V13.01,2013-02-11 23:46:00,
2013-02-11 17:52:00,15.2,13.1,29.87,NNW,333,2.0,15.0,91,0.00,,---,0.00,VWS V13.01,2013-02-11 23:52:00,
2013-02-11 17:57:00,15.1,12.9,29.87,NW,320,6.0,15.0,91,0.00,,---,0.00,VWS V13.01,2013-02-11 23:57:00,
2013-02-11 18:02:00,15.1,12.9,29.88,NNW,339,5.0,15.0,91,0.00,,---,0.00,VWS V13.01,2013-02-12 00:02:00,
2013-02-11 18:07:00,15.1,12.9,29.88,NW,319,2.0,8.0,91,0.00,,---,0.00,VWS V13.01,2013-02-12 00:07:00,
2013-02-11 18:13:00,15.1,12.9,29.88,NW,313,3.0,8.0,91,0.00,,---,0.00,VWS V13.01,2013-02-12 00:13:00,
2013-02-11 18:18:00,15.1,12.9,29.91,WNW,298,2.0,8.0,91,0.00,,---,0.00,VWS V13.01,2013-02-12 00:18:00,
2013-02-11 18:23:00,15.1,12.9,29.91,NNW,333,2.0,8.0,91,0.00,,---,0.00,VWS V13.01,2013-02-12 00:23:00,
2013-02-11 18:28:00,15.1,12.9,29.91,West,281,2.0,8.0,91,0.00,,---,0.00,VWS V13.01,2013-02-12 00:28:00,
2013-02-11 18:33:00,15.2,13.1,29.91,WNW,292,5.0,5.0,91,0.00,,---,0.00,VWS V13.01,2013-02-12 00:33:00,
2013-02-11 18:38:00,15.2,13.1,29.91,NNW,348,3.0,8.0,91,0.00,,---,0.00,VWS V13.01,2013-02-12 00:38:00,
2013-02-11 18:44:00,15.2,13.1,29.91,NW,307,2.0,9.0,91,0.00,,---,0.00,VWS V13.01,2013-02-12 00:44:00,
2013-02-11 18:49:00,15.3,13.1,29.92,NW,311,4.0,7.0,91,0.00,,---,0.00,VWS V13.01,2013-02-12 00:49:00,
2013-02-11 18:54:00,15.3,13.1,29.92,NNW,336,3.0,11.0,91,0.00,,---,0.00,VWS V13.01,2013-02-12 00:54:00,
2013-02-11 18:59:00,15.3,13.1,29.92,North,350,4.0,11.0,91,0.00,,---,0.00,VWS V13.01,2013-02-12 00:59:00,
2013-02-11 19:05:00,15.3,13.1,29.93,NNW,344,7.0,11.0,91,0.00,,---,0.00,VWS V13.01,2013-02-12 01:05:00,
2013-02-11 19:10:00,15.3,13.1,29.93,NNW,340,14.0,14.0,91,0.00,,---,0.00,VWS V13.01,2013-02-12 01:10:00,
2013-02-11 19:15:00,15.1,12.9,29.93,North,355,7.0,16.0,91,0.00,,---,0.00,VWS V13.01,2013-02-12 01:15:00,
2013-02-11 19:20:00,15.1,12.9,29.93,North,355,7.0,14.0,91,0.00,,---,0.00,VWS V13.01,2013-02-12 01:20:00,
2013-02-11 19:25:00,15.0,12.9,29.93,NW,315,3.0,14.0,91,0.00,,---,0.00,VWS V13.01,2013-02-12 01:25:00,
2013-02-11 19:31:00,15.0,12.9,29.93,NW,309,9.0,14.0,91,0.00,,---,0.00,VWS V13.01,2013-02-12 01:31:00,
2013-02-11 19:36:00,15.0,12.9,29.95,NNW,341,10.0,11.0,91,0.00,,---,0.00,VWS V13.01,2013-02-12 01:36:00,
2013-02-11 19:41:00,15.0,12.9,29.95,NW,309,1.0,11.0,91,0.00,,---,0.00,VWS V13.01,2013-02-12 01:41:00,
2013-02-11 19:46:00,14.9,12.8,29.95,NW,309,3.0,11.0,91,0.00,,---,0.00,VWS V13.01,2013-02-12 01:46:00,
2013-02-11 19:52:00,14.9,12.8,29.95,WNW,294,2.0,16.0,91,0.00,,---,0.00,VWS V13.01,2013-02-12 01:52:00,
2013-02-11 19:57:00,14.9,12.8,29.95,NNW,336,8.0,16.0,91,0.00,,---,0.00,VWS V13.01,2013-02-12 01:57:00,
2013-02-11 20:02:00,14.9,12.8,29.95,NW,307,4.0,16.0,91,0.00,,---,0.00,VWS V13.01,2013-02-12 02:02:00,
2013-02-11 20:07:00,14.9,12.8,29.95,WNW,292,1.0,11.0,91,0.00,,---,0.00,VWS V13.01,2013-02-12 02:07:00,
2013-02-11 20:12:00,14.9,12.8,29.95,NW,326,3.0,12.0,91,0.00,,---,0.00,VWS V13.01,2013-02-12 02:12:00,
2013-02-11 20:18:00,14.9,12.8,29.98,NW,313,4.0,7.0,91,0.00,,---,0.00,VWS V13.01,2013-02-12 02:18:00,
2013-02-11 20:26:00,14.8,12.6,29.98,WNW,296,6.0,11.0,91,0.00,,---,0.00,VWS V13.01,2013-02-12 02:26:00,
2013-02-11 20:31:00,14.8,12.6,29.99,NW,313,2.0,11.0,91,0.00,,---,0.00,VWS V13.01,2013-02-12 02:31:00,
2013-02-11 20:37:00,14.8,12.6,29.99,NW,314,3.0,7.0,91,0.00,,---,0.00,VWS V13.01,2013-02-12 02:37:00,
2013-02-11 20:42:00,14.8,12.6,29.99,NW,315,1.0,8.0,91,0.00,,---,0.00,VWS V13.01,2013-02-12 02:42:00,
2013-02-11 20:47:00,14.8,12.6,29.99,NW,305,5.0,13.0,91,0.00,,---,0.00,VWS V13.01,2013-02-12 02:47:00,
2013-02-11 20:52:00,14.7,12.6,29.99,NNW,328,4.0,14.0,91,0.00,,---,0.00,VWS V13.01,2013-02-12 02:52:00,
2013-02-11 20:58:00,14.7,12.3,29.99,WNW,303,4.0,14.0,90,0.00,,---,0.00,VWS V13.01,2013-02-12 02:58:00,
2013-02-11 21:03:00,14.6,12.2,30.00,NW,326,4.0,7.0,90,0.00,,---,0.00,VWS V13.01,2013-02-12 03:03:00,
2013-02-11 21:08:00,14.6,12.2,30.00,WNW,287,9.0,13.0,90,0.00,,---,0.00,VWS V13.01,2013-02-12 03:08:00,
2013-02-11 21:13:00,14.5,12.1,30.00,NNW,340,3.0,13.0,90,0.00,,---,0.00,VWS V13.01,2013-02-12 03:13:00,
2013-02-11 21:19:00,14.5,12.1,30.01,NW,315,4.0,12.0,90,0.00,,---,0.00,VWS V13.01,2013-02-12 03:19:00,
2013-02-11 21:24:00,14.5,12.1,30.01,North,5,5.0,12.0,90,0.00,,---,0.00,VWS V13.01,2013-02-12 03:24:00,
2013-02-11 21:29:00,14.5,12.1,30.01,WNW,286,1.0,12.0,90,0.00,,---,0.00,VWS V13.01,2013-02-12 03:29:00,
2013-02-11 21:34:00,14.4,12.0,30.02,NNW,327,4.0,7.0,90,0.00,,---,0.00,VWS V13.01,2013-02-12 03:34:00,
2013-02-11 21:40:00,14.4,12.0,30.02,WNW,284,3.0,8.0,90,0.00,,---,0.00,VWS V13.01,2013-02-12 03:40:00,
2013-02-11 21:45:00,14.3,12.2,30.02,NW,306,2.0,8.0,91,0.00,,---,0.00,VWS V13.01,2013-02-12 03:45:00,
2013-02-11 21:50:00,14.3,12.2,30.02,NW,325,2.0,7.0,91,0.00,,---,0.00,VWS V13.01,2013-02-12 03:50:00,
2013-02-11 21:56:00,14.3,12.2,30.02,NNW,344,9.0,9.0,91,0.00,,---,0.00,VWS V13.01,2013-02-12 03:56:00,
2013-02-11 22:01:00,14.3,12.2,30.02,NNW,327,2.0,9.0,91,0.00,,---,0.00,VWS V13.01,2013-02-12 04:01:00,
2013-02-11 22:06:00,14.3,12.2,30.02,NNW,344,3.0,6.0,91,0.00,,---,0.00,VWS V13.01,2013-02-12 04:06:00,
2013-02-11 22:11:00,14.2,12.1,30.02,NW,326,3.0,6.0,91,0.00,,---,0.00,VWS V13.01,2013-02-12 04:11:00,
2013-02-11 22:17:00,14.2,12.1,30.02,NW,325,2.0,6.0,91,0.00,,---,0.00,VWS V13.01,2013-02-12 04:17:00,
2013-02-11 22:22:00,14.2,12.1,30.02,NNW,327,5.0,5.0,91,0.00,,---,0.00,VWS V13.01,2013-02-12 04:22:00,
2013-02-11 22:27:00,14.1,12.0,30.02,NNW,328,0.0,6.0,91,0.00,,---,0.00,VWS V13.01,2013-02-12 04:27:00,
2013-02-11 22:32:00,14.2,12.1,30.03,NNW,328,0.0,0.0,91,0.00,,---,0.00,VWS V13.01,2013-02-12 04:32:00,
2013-02-11 22:38:00,14.2,12.1,30.03,NNW,328,0.0,3.0,91,0.00,,---,0.00,VWS V13.01,2013-02-12 04:38:00,
2013-02-11 22:43:00,14.2,12.1,30.03,NNW,328,1.0,3.0,91,0.00,,---,0.00,VWS V13.01,2013-02-12 04:43:00,
2013-02-11 22:48:00,14.2,12.1,30.03,NNW,327,0.0,4.0,91,0.00,,---,0.00,VWS V13.01,2013-02-12 04:48:00,
2013-02-11 22:53:00,14.2,12.1,30.03,NNW,328,1.0,4.0,91,0.00,,---,0.00,VWS V13.01,2013-02-12 04:53:00,
2013-02-11 22:59:00,14.2,12.1,30.03,NNW,328,0.0,7.0,91,0.00,,---,0.00,VWS V13.01,2013-02-12 04:59:00,
2013-02-11 23:00:00,14.2,12.1,30.03,NNW,328,1.0,7.0,91,0.00,,---,0.00,VWS V13.01,2013-02-12 05:00:00,
2013-02-11 23:01:00,14.2,12.1,30.03,NNW,328,1.0,7.0,91,0.00,,---,0.00,VWS V13.01,2013-02-12 05:01:00,
2013-02-11 23:02:00,14.2,12.1,30.03,NNW,327,3.0,7.0,91,0.00,,---,0.00,VWS V13.01,2013-02-12 05:02:00,
2013-02-11 23:07:00,14.2,12.1,30.03,NNW,329,1.0,5.0,91,0.00,,---,0.00,VWS V13.01,2013-02-12 05:07:00,
2013-02-11 23:12:00,14.2,12.1,30.03,NW,313,0.0,5.0,91,0.00,,---,0.00,VWS V13.01,2013-02-12 05:12:00,
2013-02-11 23:18:00,14.2,12.1,30.03,WNW,295,2.0,4.0,91,0.00,,---,0.00,VWS V13.01,2013-02-12 05:18:00,
2013-02-11 23:23:00,14.2,12.1,30.03,WNW,296,2.0,4.0,91,0.00,,---,0.00,VWS V13.01,2013-02-12 05:23:00,
2013-02-11 23:28:00,14.2,12.1,30.03,NW,319,5.0,9.0,91,0.00,,---,0.00,VWS V13.01,2013-02-12 05:28:00,
2013-02-11 23:33:00,14.1,12.0,30.03,NW,315,1.0,3.0,91,0.00,,---,0.00,VWS V13.01,2013-02-12 05:33:00,
2013-02-11 23:39:00,14.1,12.0,30.03,NW,317,1.0,4.0,91,0.00,,---,0.00,VWS V13.01,2013-02-12 05:39:00,
2013-02-11 23:44:00,14.0,11.9,30.03,NW,311,2.0,5.0,91,0.00,,---,0.00,VWS V13.01,2013-02-12 05:44:00,
2013-02-11 23:49:00,14.0,11.9,30.03,NW,312,1.0,3.0,91,0.00,,---,0.00,VWS V13.01,2013-02-12 05:49:00,
2013-02-11 23:54:00,14.0,11.9,30.03,NW,313,3.0,5.0,91,0.00,,---,0.00,VWS V13.01,2013-02-12 05:54:00,